Location: Brantley
(31.5822°N, 86.2569°W)
Time: 19:33:47
(UTC+00:00)

Vanguard 2 - Pass Details

Date: 22 February 2026
Orbit: 553 x 2896 km, 32.9° (Epoch: 10 March)

Event Time Altitude Azimuth Distance (km) Brightness Sun altitude
Rises 08:58:44 0° 237° (WSW) 5,509 - -43.2°
Reaches altitude 10° 09:03:03 10° 233° (SW) 4,123 - -42.3°
Maximum altitude 09:12:50 54° 160° (SSE) 1,440 - -40.3°
Exits shadow 09:15:23 36° 106° (ESE) 1,607 9.3 -39.8°
Drops below altitude 10° 09:18:46 10° 84° (E) 2,546 10.9 -39.1°
Sets 09:20:52 0° 79° (E) 3,286 11.7 -38.6°
